{"data":{"norad_id":36581,"epoch":"2026-05-25T03:51:16.622784Z","epoch_age_seconds":51278,"freshness":"FRESH","line1":"1 36581U 10021A   26145.16060906  .00000136  00000+0  00000+0 0  9991","line2":"2 36581   1.4109  83.8143 0004141 344.2390 256.0553  1.00275483 58630","mean_motion":1.00275483,"eccentricity":0.0004141,"inclination_deg":1.4109,"raan_deg":83.8143,"arg_perigee_deg":344.239,"mean_anomaly_deg":256.0553,"bstar":0,"rev_number":5863,"period_min":1436.0439430643,"perigee_km":35768.098323181,"apogee_km":35803.018295636,"semimajor_km":42163.695309409,"source":"CELESTRAK","updated_at":"2026-05-25T13:38:14.503642Z"}}